AirNav   ProFlight Series 2 Aviation Headset
 
 852 users online  

PABG Beluga Airport
Beluga, Alaska, USA

GOING TO BELUGA?


FAA INFORMATION EFFECTIVE 18 JUNE 2020

Location

FAA Identifier: BLG
Lat/Long: 61-10-22.6628N 151-02-43.4987W
61-10.377713N 151-02.724978W
61.1729619,-151.0454163
(estimated)
Elevation: 87.2 ft. / 27 m (estimated)
Variation: 19E (2010)
From city: 8 SM NE OF TYONEK.
Time zone: UTC -8 (UTC -9 during Standard Time)
Zip code: 99688

Airport Operations

Airport use: Private use. Permission required prior to landing
Activation date: 07/1962
Control tower: no
ARTCC: ANCHORAGE CENTER
FSS: KENAI FLIGHT SERVICE STATION [907-283-7211]
Attendance: CONTINUOUS
Wind indicator: yes
Segmented circle: no
Lights: ACTVT MIRL RY 09/27 & 01/19 - CTAF.

Airport Communications

CTAF/UNICOM: 122.7

Nearby radio navigation aids

VOR radial/distance  VOR name  Freq  Var
TEDr253/31.4ANCHORAGE VOR/DME113.1518E
ENAr348/33.8KENAI VOR/DME117.6019E
BGQr213/39.1BIG LAKE VORTAC112.5019E

 
NDB name  Hdg/Dist  Freq  Var  ID
CAMPBELL LAKE254/28.933816ECMQ -.-. -- --.-
WILDWOOD353/34.837915EIWW .. .-- .--

Airport Services

Airframe service: NONE
Powerplant service: NONE
Bottled oxygen: NONE
Bulk oxygen: NONE

Runway Information

Helipad H1

Dimensions: 60 x 60 ft. / 18 x 18 m
Surface: concrete
Runway edge lights: PERI
Traffic pattern: leftleft

Runway 1/19

Dimensions: 5002 x 100 ft. / 1525 x 30 m
Surface: gravel, in good condition
Runway edge lights: medium intensity
RUNWAY 1  RUNWAY 19
Latitude: 61-10.003333N61-10.724333N
Longitude: 151-02.981167W151-02.168333W
Elevation: 76.3 ft.71.0 ft.
Traffic pattern: leftleft
Runway heading: 010 magnetic, 029 true190 magnetic, 209 true
Runway end identifier lights: nono
Touchdown point: yes, no lightsyes, no lights
Obstructions: trees, 100 ft. from runway, 20:1 slope to cleartrees, 100 ft. from runway, 12:1 slope to clear

Runway 9/27

Dimensions: 2505 x 60 ft. / 764 x 18 m
Surface: gravel
Runway edge lights: medium intensity
Operational restrictions: NOT MAINTAINED IN WINTER.
RUNWAY 9  RUNWAY 27
Latitude: 61-10.468833N61-10.342000N
Longitude: 151-03.429667W151-02.620000W
Elevation: 86.7 ft.73.9 ft.
Traffic pattern: leftleft
Runway heading: 089 magnetic, 108 true269 magnetic, 288 true
Touchdown point: yes, no lightsyes, no lights

Airport Ownership and Management from official FAA records

Ownership: Privately-owned
Owner: HILCORP ALASKA, LLC
3800 CENTERPOINT DR., STE 1400
ANCHORAGE, AK 99503
Phone 907-777-8300
Manager: HILCORP ALASKA, LLC
3800 CENTERPOINT DR., STE 1400
ANCHORAGE, AK 99503
Phone 907-777-8300

Airport Operational Statistics

Aircraft operations: avg 107/week *
89% transient general aviation
9% air taxi
2% local general aviation
* for 12-month period ending 15 January 1993

Additional Remarks

LANDING AUTHORIZATION APPROVAL REQ PRIOR TO OPS. CTC SUPERVISOR 907-263-3930, MOBILE 907-263-3910. ADDTIONALLY PPR FOR ACFT GREATER THAN 20,000 LBS. PPR IS NOT REQUIRED FOR SMALL ACFT IF LANDING AUTHORIZATION IS ACTIVE.
CONC HELIPAD LOCATED NE OF RWY 19.
UNCONTROLLED VEHICLES OPERATING ON SERVICE ROAD ALONG EAST SIDE OF RY.
ROAD CROSSES ADJACENT TO NORTH END OF RY 19.
BRUSH MAY HINDER DRIVERS FROM SEEING APPROACHING ACFT ON AER 19.
WILDLIFE ON AND INVOF AIRPORT.
WEST SIDE OF TY DOES NOT HAVE SHOULDER BYD RY EDGE LIGHTS. SHOULDER AREA ON WEST AND NORTH SIDE OF RY SOGGY AT TIMES. RY 19 FIRST 200 FT SOFT & UNSTABLE.
ENTIRE RY NOT VISIBLE BY PERSONNEL ON DUTY.
WX CAMERA AVBL ON INTERNET AT HTTP://AVCAMS.FAA.GOV

Instrument Procedures

There are no published instrument procedures at PABG.

Some nearby airports with instrument procedures:

PANC - Ted Stevens Anchorage International Airport (30 nm E)
PAMR - Merrill Field Airport (35 nm E)
PAED - Elmendorf Air Force Base (36 nm E)
PAEN - Kenai Municipal Airport (36 nm S)
PAFR - Bryant Army Airfield Heliport (41 nm E)
 
Loc | Ops | Rwys | IFR | FBO | Links
Com | Nav | Svcs | Stats | Notes

Crowley
 
Area around PABG (Beluga Airport)
 
Road maps at: MapQuest Bing Google
 
Aerial photo
WARNING: Photo may not be current or correct
Aerial photo of PABG (Beluga Airport)
Photo by Security Aviation
Photo taken 18-Oct-2018
looking north.

Do you have a better or more recent aerial photo of Beluga Airport that you would like to share? If so, please send us your photo.

 
Sectional chart

 
Airport distance calculator
Flying to Beluga Airport? Find the distance to fly.

From to PABG

Sunrise and sunset
Times for 15-Jul-2020
 Local
(UTC-8)
 Zulu
(UTC)
Morning civil twilight03:3011:30
Sunrise05:0013:00
Sunset23:2007:20
Evening civil twilight00:5008:50

Current date and time
Zulu (UTC)  15-Jul-2020 12:24:52
Local (UTC-8)  15-Jul-2020 04:24:52
 
METAR
PANC 
30nm E 
151153Z 18004KT 10SM FEW060 12/09 A2981 RMK AO2 SLP094 60000 T01170094 10189 20111 50000
PALH 
31nm E 
151153Z 22003KT 10SM CLR 14/11 A2982 RMK AO2 SLP097 T01440111 10200 20128 50000
PAMR 
35nm E 
151153Z 00000KT 10SM FEW085 14/07 A2981 RMK AO2 SLP093 T01440072 10194 20144 50001
PAED 
36nm E 
151156Z 25005KT 10SM FEW100 15/09 A2981 RMK AO2A SLP090 T01490088 10178 20143 50000 $
PAEN 
37nm S 
151153Z AUTO 35003KT 10SM CLR 08/06 A2982 RMK AO2 SLP100 T00780061 10167 20078 53006 TSNO
PAFR 
41nm E 
151158Z AUTO 02003KT 9SM CLR 10/09 A2979 RMK AO2 SLP093 60000 T01040087 10196 20102 53001 $
PASX 
41nm S 
151156Z AUTO 08005KT 10SM CLR 10/07 A2985 RMK AO2 SLP116 T01000072 10200 20100 53007
PABV 
46nm E 
151156Z AUTO 00000KT 10SM CLR 13/11 A2983 RMK AO2 SLP105 60000 T01330111 10217 20133 53005
TAF
PANC 
30nm E 
151131Z 1512/1618 VRB05KT P6SM FEW050 BKN120 FM152000 29008KT P6SM FEW050 BKN140
PAED 
36nm E 
151000Z 1510/1616 VRB06KT 9999 FEW080 BKN100 QNH2980INS BECMG 1522/1523 25010KT 9999 SCT080 SCT200 QNH2983INS BECMG 1605/1606 VRB06KT 9999 SCT050 BKN060 BKN100 QNH2984INS TX22/1601Z TN11/1514Z
PAEN 
37nm S 
151131Z 1512/1612 20008KT P6SM SKC FM152300 24009G12KT P6SM SKC
NOTAMs
Click for the latest NOTAMs
NOTAMs are issued by the DoD/FAA and will open in a separate window not controlled by AirNav.

 

 
 

Would you like to see your business listed on this page?

 If your business provides an interesting product or service to pilots, flight crews, aircraft, or users of the Beluga Airport, you should consider listing it here.  To start the listing process, click on the button below
 
Add a business
 

Other Pages about Beluga Airport

Update a link
 
Copyright © AirNav, LLC. All rights reserved. Privacy Policy  Contact